Temperature
2 2 2 2 2 2 1 2 3 3 3 3 2 1 -1 -2 -2 -3 -3 -3 -3 -4 -4 -4 -3 -3 -3 -3 -3 -3 -3 -3 -3 -3 -3 -3 -3 -2 -2 -2 -2 -1 -1 -1
1 1 1 1 1 1 1 1 1 1 1 2 0 -1 -2 -2 -3 -3 -3 -4 -4 -4 -4 -4 -4 -4 -4 -4 -4 -4 -4 -4 -4 -4 -4 -3 -3 -3 -3 -2 -2 -2 -2 -1
1 0 0 1 1 1 1 0 1 1 1 -0 -1 -1 -2 -3 -3 -4 -4 -5 -5 -5 -5 -5 -5 -5 -5 -5 -5 -5 -5 -5 -4 -4 -4 -4 -4 -3 -3 -3 -3 -2 -2 -2
0 0 -0 2 -0 0 0 -0 -1 -1 -1 -1 -2 -3 -3 -3 -4 -4 -5 -5 -5 -5 -6 -6 -6 -5 -5 -5 -5 -5 -5 -5 -5 -5 -5 -4 -4 -4 -4 -3 -3 -3 -2 -2
-0 0 1 1 -0 -1 -1 -1 -1 -1 -2 -2 -3 -3 -3 -3 -4 -5 -5 -6 -6 -6 -6 -6 -6 -6 -6 -6 -6 -6 -6 -6 -6 -6 -5 -5 -5 -5 -4 -4 -4 -3 -3 -3
-1 -0 1 1 -1 -2 -1 -1 -2 -3 -2 -3 -4 -2 -2 -4 -5 -5 -6 -6 -6 -6 -6 -6 -6 -6 -6 -6 -6 -6 -6 -6 -6 -6 -6 -6 -5 -5 -5 -5 -4 -4 -3 -3
-1 -1 1 -0 -2 -2 -1 -0 -2 -3 -3 -4 -4 -4 -4 -5 -6 -6 -6 -6 -6 -6 -6 -6 -6 -7 -7 -7 -7 -7 -7 -7 -7 -6 -6 -6 -6 -6 -5 -5 -5 -4 -4 -4
-2 -2 -0 -2 -3 -2 -1 -3 -3 -4 -4 -5 -5 -5 -6 -6 -6 -7 -7 -7 -7 -7 -7 -7 -7 -7 -7 -7 -7 -7 -7 -7 -7 -7 -7 -6 -6 -6 -6 -6 -5 -5 -5 -4
-1 -0 -2 -3 -3 -4 -4 -4 -5 -5 -5 -6 -6 -6 -7 -7 -7 -7 -7 -7 -7 -7 -7 -7 -7 -7 -7 -7 -8 -8 -7 -7 -7 -7 -7 -7 -7 -7 -6 -6 -6 -6 -6 -5
-3 -2 -3 -4 -4 -4 -5 -5 -5 -6 -6 -7 -7 -7 -7 -8 -8 -8 -8 -8 -8 -8 -8 -8 -8 -8 -8 -8 -8 -8 -8 -8 -8 -7 -7 -7 -7 -7 -7 -7 -7 -7 -6 -6
-3 -3 -4 -5 -5 -5 -6 -6 -6 -7 -7 -7 -8 -8 -8 -8 -8 -8 -8 -8 -8 -8 -8 -8 -8 -8 -8 -8 -8 -8 -8 -8 -8 -8 -8 -8 -7 -7 -7 -7 -7 -7 -7 -7
-3 -4 -4 -5 -5 -6 -6 -7 -7 -7 -7 -8 -8 -8 -8 -8 -8 -8 -8 -9 -9 -9 -9 -9 -9 -9 -9 -9 -9 -9 -9 -9 -9 -8 -8 -8 -8 -8 -7 -7 -7 -7 -7 -7
-5 -5 -6 -6 -6 -6 -7 -7 -7 -8 -8 -8 -8 -8 -9 -9 -9 -9 -9 -9 -9 -9 -9 -9 -9 -9 -9 -9 -9 -9 -9 -9 -9 -9 -9 -9 -9 -8 -8 -8 -8 -8 -7 -7
-6 -6 -7 -7 -7 -7 -7 -8 -8 -8 -8 -8 -9 -9 -9 -9 -9 -9 -10 -10 -10 -10 -10 -10 -10 -9 -9 -9 -9 -9 -9 -9 -9 -9 -9 -9 -9 -9 -9 -9 -8 -8 -8 -8
-6 -7 -7 -7 -7 -8 -8 -8 -8 -9 -9 -9 -9 -9 -9 -10 -10 -10 -10 -10 -10 -10 -10 -10 -10 -9 -9 -9 -9 -9 -9 -10 -9 -9 -9 -9 -9 -9 -9 -9 -9 -9 -8 -8
-7 -7 -7 -8 -8 -8 -8 -9 -9 -9 -9 -9 -9 -10 -10 -10 -10 -10 -10 -10 -10 -10 -10 -10 -10 -10 -10 -10 -10 -10 -10 -10 -10 -10 -10 -10 -10 -10 -9 -9 -9 -9 -9 -9
-8 -8 -8 -8 -8 -9 -9 -9 -9 -10 -10 -10 -10 -10 -10 -10 -10 -10 -10 -11 -11 -10 -10 -10 -10 -10 -10 -10 -10 -10 -10 -10 -10 -10 -10 -10 -10 -10 -10 -10 -10 -9 -9 -9
-8 -8 -8 -8 -9 -9 -9 -9 -10 -10 -10 -10 -10 -10 -10 -11 -11 -11 -11 -11 -11 -10 -10 -11 -10 -10 -10 -10 -10 -10 -10 -10 -10 -10 -10 -10 -10 -10 -10 -10 -10 -10 -9 -9
-8 -8 -8 -9 -9 -9 -9 -10 -10 -10 -10 -11 -11 -11 -11 -11 -11 -11 -11 -11 -11 -11 -11 -11 -11 -11 -11 -11 -11 -11 -11 -11 -11 -11 -11 -11 -11 -10 -10 -10 -10 -10 -10 -10
-8 -9 -9 -9 -9 -10 -10 -10 -10 -10 -11 -11 -11 -11 -11 -11 -11 -11 -11 -11 -12 -12 -11 -11 -11 -11 -11 -11 -11 -11 -11 -11 -11 -11 -11 -11 -11 -11 -11 -11 -10 -10 -10 -10
-9 -9 -9 -9 -10 -10 -10 -10 -10 -11 -11 -11 -11 -11 -11 -11 -12 -12 -12 -12 -12 -12 -12 -12 -11 -11 -11 -11 -11 -11 -11 -11 -11 -11 -11 -11 -11 -11 -11 -11 -11 -11 -11 -11
-9 -9 -10 -10 -10 -10 -10 -11 -11 -11 -11 -11 -12 -12 -12 -12 -12 -12 -12 -12 -12 -12 -12 -12 -12 -12 -12 -12 -12 -12 -12 -12 -12 -12 -12 -12 -12 -12 -11 -11 -11 -11 -11 -11
-10 -10 -10 -10 -11 -11 -11 -11 -11 -11 -12 -12 -12 -12 -12 -12 -13 -13 -13 -13 -13 -12 -12 -12 -12 -12 -12 -12 -12 -12 -12 -12 -12 -12 -12 -12 -12 -12 -12 -12 -12 -12 -11 -11
-10 -10 -11 -11 -11 -11 -11 -11 -12 -12 -12 -12 -12 -13 -13 -13 -13 -13 -13 -13 -13 -13 -12 -12 -12 -12 -12 -12 -12 -12 -12 -12 -12 -12 -12 -12 -12 -12 -12 -12 -12 -12 -12 -12
-11 -11 -11 -11 -11 -11 -12 -12 -12 -12 -12 -12 -13 -13 -13 -13 -13 -13 -13 -13 -13 -13 -13 -13 -13 -13 -13 -13 -13 -13 -13 -13 -13 -13 -13 -13 -13 -13 -12 -12 -12 -12 -12 -12
-11 -11 -11 -12 -12 -12 -12 -12 -12 -12 -13 -13 -13 -13 -13 -13 -13 -13 -13 -13 -13 -13 -13 -13 -13 -13 -13 -13 -13 -13 -13 -13 -13 -13 -13 -13 -13 -13 -13 -13 -12 -12 -12 -12
-12 -12 -12 -12 -12 -12 -12 -13 -13 -13 -13 -13 -13 -13 -13 -13 -13 -13 -13 -13 -13 -13 -13 -13 -13 -13 -13 -13 -13 -13 -13 -13 -13 -13 -13 -13 -13 -13 -13 -13 -13 -12 -12 -12
Wind_Speed
9 8 8 10 11 11 12 13 13 13 14 13 10 8 8 8 9 10 11 11 12 12 12 11 11 11 10 10 9 9 9 8 8 8 8 8 8 8 7 7 7 7 7 7
6 6 8 12 13 13 14 13 14 15 15 9 6 6 7 9 9 10 11 12 13 12 12 12 12 11 11 11 10 9 9 9 8 8 8 8 8 8 7 7 7 6 7 7
5 5 7 10 9 11 8 8 9 11 8 5 6 7 8 9 9 10 12 12 12 12 12 12 12 11 11 11 10 9 9 9 8 8 8 8 8 8 7 7 7 7 7 7
4 3 8 3 1 4 7 8 7 7 6 6 7 9 9 8 8 10 11 12 12 12 12 12 12 10 10 10 9 9 9 9 8 8 8 8 8 8 8 7 7 6 7 7
3 5 9 5 3 3 4 6 5 6 6 7 7 8 7 5 7 10 11 12 12 12 12 11 11 10 10 9 9 9 9 9 9 8 8 8 8 8 8 7 7 7 7 7
4 6 7 3 1 0 2 5 2 4 5 6 6 8 8 7 9 11 11 10 11 11 11 10 10 10 9 9 9 9 9 10 9 9 9 9 8 8 7 7 7 6 7 7
8 8 8 2 1 2 4 3 0 4 5 6 7 9 9 10 10 10 11 11 11 11 10 9 10 9 9 10 10 10 10 10 10 9 9 9 8 7 7 6 6 6 6 6
6 7 7 3 4 4 4 3 3 5 6 7 9 10 10 10 11 11 11 11 11 10 10 9 9 8 9 10 10 10 9 9 9 9 8 7 8 7 7 6 6 5 5 5
7 6 3 3 3 3 3 4 5 6 7 8 9 10 11 11 11 11 11 11 10 10 10 9 9 8 9 10 10 10 10 10 9 9 8 7 7 7 6 5 5 4 4 4
6 7 6 5 5 5 5 5 6 6 7 7 9 10 11 10 10 10 11 10 9 9 10 10 10 9 9 10 10 10 10 10 9 8 8 7 6 6 5 5 4 4 4 4
8 7 6 6 6 6 5 5 6 6 7 8 9 10 10 10 10 10 10 9 9 9 10 11 10 10 10 9 9 9 10 9 8 7 7 7 6 6 6 5 5 5 4 5
7 5 5 5 5 5 5 6 6 7 8 8 8 9 10 10 9 9 9 9 9 9 10 11 11 11 10 9 9 9 8 8 7 6 6 6 6 6 6 6 7 7 7 7
5 4 5 6 5 5 5 6 7 7 7 8 8 8 9 9 8 8 9 9 9 10 10 11 11 11 11 10 9 8 8 8 7 6 6 6 6 6 6 6 5 6 6 7
4 3 4 5 5 5 5 6 6 6 6 7 7 7 7 8 8 8 9 9 9 10 10 10 10 11 11 10 9 9 8 8 7 6 6 6 6 6 5 5 5 5 5 6
4 4 5 4 4 4 4 4 5 6 6 6 6 6 7 7 8 9 9 9 9 9 9 10 10 11 11 9 9 9 7 6 6 6 6 6 6 5 5 5 5 5 5 5
3 3 3 3 4 5 5 5 6 7 7 7 7 7 7 7 8 8 8 8 8 9 10 10 10 11 10 9 9 7 6 8 7 6 5 5 5 5 4 5 5 5 4 4
1 2 3 4 5 6 6 6 6 7 7 7 8 8 7 7 8 8 8 8 8 9 9 9 10 11 10 9 8 6 6 6 7 6 5 5 4 4 4 5 5 5 4 5
3 4 4 5 5 6 6 6 6 6 7 7 7 7 7 7 8 9 9 9 9 9 9 9 9 10 9 8 7 6 6 5 5 5 5 4 5 4 5 5 5 5 4 5
3 3 4 5 5 4 5 6 6 6 6 6 6 7 7 7 8 8 8 8 9 9 9 9 12 10 9 9 8 6 5 5 5 5 4 5 5 4 4 4 4 4 4 4
2 3 3 4 4 4 5 5 5 6 6 5 6 6 7 7 7 8 8 7 7 7 9 10 10 9 8 8 8 5 5 5 5 5 4 4 5 4 4 4 4 4 4 4
3 3 3 4 4 4 4 5 5 6 6 5 5 7 8 8 7 7 7 7 8 8 9 11 8 8 7 7 7 5 5 4 4 4 4 4 4 4 4 4 4 4 4 4
3 3 4 4 4 5 5 4 5 5 6 5 6 6 7 8 7 7 6 6 8 11 9 7 7 9 10 9 5 5 4 4 4 4 4 4 4 4 5 5 5 4 4 4
3 3 3 4 4 5 5 4 4 4 5 5 6 6 6 6 6 6 7 6 7 11 9 7 10 13 12 6 4 5 5 5 5 4 4 4 4 4 5 5 5 5 5 5
3 3 3 3 3 3 4 5 4 4 5 5 5 5 5 5 5 4 5 9 11 11 8 9 13 13 10 5 5 5 5 5 5 5 4 4 4 4 5 5 5 5 5 6
3 3 2 2 3 3 4 5 4 5 5 4 5 5 4 4 5 6 6 7 10 10 7 9 12 11 7 5 5 5 5 5 5 5 4 4 4 4 5 5 5 5 5 5
2 2 3 3 3 3 3 3 3 4 4 5 5 5 5 5 6 6 6 7 8 9 7 6 7 8 6 6 6 6 5 6 5 5 4 4 5 5 5 5 6 5 5 5
2 2 2 2 2 2 2 3 3 4 4 4 5 5 6 6 6 6 6 6 6 6 6 6 6 6 6 6 6 6 5 5 5 5 5 4 4 4 5 5 5 5 5 5
Wind_Direction
265 274 267 262 257 244 239 246 257 268 273 283 293 298 303 308 314 317 320 323 322 320 320 321 320 318 318 316 316 314 310 306 306 307 306 302 301 298 295 290 285 282 277 273
268 266 269 268 259 248 246 250 255 268 278 293 308 302 302 309 313 313 316 319 320 319 319 320 320 318 315 313 314 312 308 305 306 306 306 304 301 299 293 289 286 282 278 276
267 293 291 265 243 230 236 242 249 261 278 307 306 302 305 309 308 309 314 315 316 316 316 315 316 315 313 313 313 309 307 306 306 306 304 302 300 298 291 287 285 279 278 275
267 279 251 275 89 235 246 257 247 260 281 291 298 305 297 295 301 309 313 313 313 313 313 312 312 314 314 312 311 310 309 308 307 307 303 302 300 298 293 288 284 281 280 278
233 258 272 272 233 222 242 270 242 254 276 297 315 306 291 297 307 308 309 309 309 309 308 308 310 312 312 312 312 310 308 305 304 302 300 299 297 297 294 288 285 283 282 280
226 249 261 272 129 135 253 264 219 240 273 293 306 298 304 326 315 308 307 308 310 309 307 306 309 312 310 310 310 309 308 306 303 300 297 294 293 293 292 286 281 281 279 277
234 248 266 277 144 173 242 296 278 256 272 280 280 286 304 309 306 306 306 309 310 308 307 308 311 310 308 308 308 310 309 306 304 301 297 294 293 291 291 285 282 279 280 281
215 232 255 145 162 216 280 334 296 284 284 282 284 292 299 300 303 306 307 309 310 308 308 310 311 310 306 306 310 310 307 305 304 303 301 296 294 293 292 284 281 282 284 287
215 239 312 187 229 274 301 293 296 291 290 287 289 293 298 299 301 304 305 306 308 308 309 311 313 309 303 305 311 310 307 305 305 305 301 296 293 292 291 283 278 280 283 289
250 262 272 264 267 284 286 284 291 291 290 289 290 294 296 298 300 303 304 306 309 310 310 311 314 310 302 304 307 305 303 303 303 302 301 299 294 289 286 278 275 279 285 289
253 271 284 267 266 275 279 284 291 293 291 291 292 293 295 296 298 300 301 304 307 307 306 308 311 310 309 308 307 304 303 303 304 304 302 301 298 294 288 277 273 279 280 281
251 258 257 275 293 290 279 282 288 292 294 296 293 293 297 296 296 298 301 306 307 307 307 309 311 310 311 311 307 303 303 303 304 304 303 302 302 302 296 287 290 289 287 288
257 276 273 277 289 293 284 287 290 288 289 294 297 295 297 298 301 304 306 308 308 308 307 308 310 310 313 313 308 302 299 300 301 301 301 301 300 300 304 308 302 293 291 294
250 258 269 274 284 291 291 295 298 296 295 294 297 300 301 302 306 308 309 310 309 307 307 309 310 311 314 314 308 302 299 298 298 296 297 296 296 296 295 299 305 305 304 298
255 253 259 280 289 298 303 304 304 303 305 307 307 305 307 307 307 308 310 312 311 309 310 313 313 313 317 314 308 302 298 298 298 297 295 294 295 294 293 291 293 298 306 307
280 270 263 274 286 297 302 303 300 301 307 308 309 309 307 305 305 307 312 316 315 313 313 314 312 313 316 313 309 303 298 297 298 297 295 294 295 293 292 291 292 293 294 300
238 271 283 291 292 297 297 294 292 295 301 302 305 307 309 310 311 312 316 318 312 306 307 309 311 314 316 315 311 305 303 301 298 294 292 292 292 290 290 290 288 286 287 293
255 265 270 274 280 289 296 299 297 298 298 301 306 308 309 310 310 312 316 319 317 315 316 317 316 317 317 317 313 308 305 302 297 292 293 292 292 289 289 287 288 288 289 293
281 280 287 287 285 287 292 297 300 300 302 305 305 303 304 304 305 309 314 318 318 319 323 325 324 323 318 319 318 308 305 303 301 298 295 296 295 292 289 289 290 292 293 291
299 299 301 301 303 297 296 303 305 304 305 305 304 305 307 309 311 312 313 309 306 308 313 317 319 319 318 319 320 312 308 305 306 307 308 303 298 297 297 296 294 295 295 293
298 304 308 309 310 306 302 304 305 305 309 307 303 303 305 309 313 313 314 313 318 320 320 320 323 320 318 321 319 315 313 312 311 310 308 305 303 302 299 298 297 297 297 297
291 296 300 303 303 307 309 307 304 305 310 311 307 306 308 312 315 312 303 300 311 323 325 321 320 321 325 323 321 322 318 315 311 309 306 305 304 304 304 305 301 300 298 297
281 285 292 296 297 303 309 310 308 309 310 311 311 310 310 310 313 313 315 319 319 323 324 321 325 328 332 335 331 326 322 317 313 309 305 303 300 299 300 302 301 300 299 299
286 292 294 300 300 304 313 318 316 312 307 306 306 305 307 310 312 306 302 314 324 325 323 326 332 335 341 341 331 324 320 316 313 310 306 303 301 299 298 298 299 300 300 300
282 286 287 295 300 302 305 312 316 318 319 320 321 322 317 308 306 313 316 319 325 327 325 328 335 339 341 330 326 321 317 311 308 306 303 302 301 300 298 298 298 298 298 297
283 288 287 284 287 295 302 307 312 319 322 322 325 327 326 321 315 316 318 321 323 327 329 328 331 333 332 328 325 322 317 315 314 312 305 300 298 298 296 297 297 296 294 293
293 296 299 305 307 304 301 301 306 314 318 318 317 322 327 327 326 327 326 327 329 329 329 329 330 330 329 328 327 326 324 321 319 314 311 305 301 298 297 296 295 294 292 291
Height
1540 1540 1540 1538 1538 1539 1538 1533 1529 1520 1522 1522 1525 1528 1527 1526 1524 1522 1519 1516 1513 1509 1505 1502 1498 1495 1491 1488 1485 1482 1479 1476 1473 1471 1469 1467 1466 1465 1463 1463 1462 1461 1461 1461
1543 1541 1540 1538 1534 1533 1533 1531 1528 1526 1524 1524 1526 1526 1525 1523 1521 1519 1516 1513 1509 1506 1502 1498 1494 1491 1487 1484 1481 1477 1474 1472 1469 1467 1465 1463 1461 1460 1459 1458 1457 1456 1456 1456
1536 1539 1537 1530 1525 1527 1527 1526 1526 1523 1522 1524 1524 1524 1523 1521 1519 1516 1513 1510 1506 1503 1499 1495 1491 1487 1483 1480 1476 1473 1470 1468 1465 1463 1460 1459 1457 1455 1454 1453 1452 1451 1451 1450
1538 1539 1535 1521 1526 1525 1524 1523 1524 1523 1523 1524 1523 1522 1520 1518 1516 1513 1510 1507 1503 1499 1495 1491 1487 1484 1480 1476 1473 1469 1466 1464 1461 1459 1456 1454 1452 1451 1449 1448 1447 1447 1446 1446
1538 1531 1521 1522 1524 1525 1524 1521 1522 1522 1522 1522 1521 1519 1516 1515 1513 1510 1507 1503 1499 1495 1491 1487 1484 1480 1476 1472 1469 1466 1463 1460 1458 1455 1452 1450 1448 1447 1445 1444 1443 1442 1442 1441
1538 1532 1521 1516 1523 1524 1525 1518 1519 1520 1520 1520 1520 1516 1511 1511 1509 1506 1503 1499 1495 1491 1488 1484 1480 1476 1473 1469 1465 1462 1459 1457 1454 1451 1449 1446 1444 1443 1441 1440 1439 1438 1437 1437
1534 1529 1516 1520 1523 1524 1522 1515 1518 1518 1518 1518 1517 1515 1512 1508 1505 1503 1499 1495 1492 1488 1484 1480 1477 1473 1469 1465 1462 1459 1456 1453 1450 1448 1445 1443 1441 1439 1437 1436 1434 1434 1433 1433
1531 1528 1520 1520 1521 1521 1517 1517 1516 1516 1516 1515 1513 1510 1508 1505 1501 1498 1495 1491 1487 1483 1480 1476 1473 1469 1465 1462 1458 1455 1452 1449 1446 1444 1441 1439 1437 1435 1434 1432 1431 1430 1429 1429
1522 1519 1517 1518 1517 1517 1517 1516 1515 1514 1512 1511 1509 1506 1503 1500 1497 1493 1490 1487 1483 1479 1475 1472 1469 1465 1461 1458 1455 1451 1448 1445 1442 1440 1437 1435 1433 1431 1430 1429 1427 1426 1425 1425
1521 1516 1516 1516 1515 1515 1514 1513 1512 1511 1509 1507 1504 1502 1499 1495 1492 1489 1486 1482 1479 1475 1471 1468 1465 1461 1458 1454 1451 1448 1444 1441 1438 1436 1433 1431 1429 1428 1426 1425 1424 1423 1422 1421
1517 1515 1514 1513 1512 1512 1511 1510 1508 1507 1505 1503 1500 1497 1494 1491 1487 1484 1481 1478 1475 1471 1467 1464 1460 1457 1454 1450 1447 1444 1441 1438 1435 1432 1430 1427 1426 1424 1423 1422 1421 1420 1419 1418
1510 1511 1512 1510 1509 1509 1507 1506 1505 1503 1500 1498 1496 1493 1490 1486 1483 1480 1477 1474 1470 1467 1463 1460 1456 1453 1450 1447 1443 1440 1437 1434 1431 1429 1426 1424 1422 1420 1419 1419 1418 1417 1416 1416
1509 1508 1508 1507 1506 1505 1504 1503 1501 1499 1497 1494 1491 1489 1485 1482 1479 1476 1473 1470 1466 1463 1459 1456 1452 1449 1446 1443 1440 1437 1434 1431 1428 1426 1423 1421 1419 1417 1415 1415 1414 1414 1413 1412
1506 1506 1505 1504 1503 1502 1501 1499 1497 1495 1493 1490 1488 1485 1482 1478 1475 1472 1469 1466 1463 1459 1456 1452 1449 1445 1442 1439 1436 1433 1430 1428 1425 1423 1420 1418 1417 1415 1414 1412 1410 1410 1410 1409
1503 1503 1502 1501 1500 1499 1497 1495 1493 1491 1488 1486 1484 1481 1478 1475 1472 1469 1466 1463 1459 1456 1452 1449 1445 1442 1438 1435 1432 1429 1427 1424 1422 1420 1418 1416 1414 1413 1411 1410 1409 1408 1407 1406
1500 1499 1499 1498 1497 1496 1494 1492 1490 1487 1485 1483 1480 1478 1475 1472 1469 1466 1463 1459 1456 1452 1449 1445 1441 1438 1435 1432 1429 1426 1424 1422 1419 1417 1415 1413 1412 1410 1409 1408 1407 1406 1405 1404
1497 1496 1495 1495 1494 1492 1491 1489 1487 1484 1482 1479 1477 1474 1472 1469 1466 1463 1459 1456 1453 1449 1446 1442 1438 1435 1432 1429 1426 1423 1421 1419 1417 1415 1413 1411 1409 1408 1407 1406 1404 1403 1403 1402
1496 1495 1494 1492 1491 1489 1487 1486 1484 1481 1479 1476 1474 1471 1468 1465 1462 1459 1456 1453 1449 1446 1443 1439 1436 1432 1429 1426 1423 1421 1418 1416 1414 1412 1410 1409 1407 1406 1405 1403 1402 1401 1400 1400
1493 1492 1491 1489 1488 1486 1484 1482 1480 1478 1476 1473 1471 1468 1465 1463 1460 1457 1453 1450 1446 1442 1440 1437 1433 1430 1427 1424 1421 1418 1416 1414 1412 1410 1408 1407 1405 1404 1402 1401 1400 1399 1398 1397
1490 1489 1488 1487 1485 1483 1481 1479 1477 1475 1473 1470 1468 1465 1462 1459 1456 1453 1450 1447 1444 1441 1437 1434 1431 1427 1424 1422 1419 1416 1414 1412 1410 1408 1406 1405 1403 1402 1400 1399 1398 1397 1396 1395
1488 1487 1485 1484 1482 1481 1479 1477 1474 1472 1470 1467 1465 1462 1459 1456 1453 1450 1447 1443 1441 1438 1435 1431 1428 1425 1422 1420 1417 1414 1412 1410 1408 1406 1404 1402 1401 1400 1398 1397 1396 1395 1394 1393
1485 1484 1483 1481 1480 1478 1476 1474 1472 1469 1467 1464 1462 1459 1456 1453 1450 1447 1445 1442 1439 1436 1432 1429 1426 1423 1421 1418 1415 1413 1410 1408 1406 1404 1402 1401 1399 1398 1396 1395 1394 1393 1392 1390
1483 1482 1480 1479 1477 1475 1473 1471 1469 1466 1464 1461 1459 1456 1453 1451 1448 1445 1442 1439 1436 1433 1430 1427 1424 1421 1419 1416 1413 1411 1408 1406 1404 1402 1400 1399 1397 1396 1394 1393 1392 1390 1389 1388
1480 1479 1478 1476 1475 1473 1471 1469 1467 1464 1462 1459 1457 1454 1451 1448 1446 1443 1440 1437 1434 1431 1428 1425 1422 1419 1416 1414 1411 1409 1406 1404 1402 1400 1398 1397 1395 1394 1392 1391 1389 1388 1387 1386
1478 1477 1475 1474 1472 1470 1468 1466 1464 1462 1460 1457 1455 1452 1450 1447 1444 1441 1438 1435 1432 1429 1426 1423 1420 1417 1414 1412 1409 1407 1405 1402 1400 1398 1396 1395 1393 1391 1390 1389 1387 1386 1384 1383
1475 1474 1473 1471 1470 1468 1466 1464 1462 1460 1458 1455 1453 1451 1448 1445 1442 1439 1436 1433 1430 1427 1424 1421 1418 1415 1413 1410 1408 1405 1403 1401 1398 1396 1394 1392 1391 1389 1388 1386 1385 1383 1382 1380
1473 1472 1470 1469 1467 1466 1464 1462 1460 1458 1456 1454 1451 1449 1446 1443 1441 1438 1435 1432 1429 1426 1423 1420 1417 1414 1411 1409 1406 1404 1401 1399 1397 1394 1392 1390 1389 1387 1385 1384 1382 1381 1380 1378